Regional Weather Roundup
Issued by NWS Green Bay, WI

Home | Current Version | Previous Version | Graphics & Text | Print | Product List | Glossary Off
Versions: 1 2 3 4 5 6 7 8 9 10 11 12 13 14 15 16 17 18 19 20 21 22 23 24 25 26 27 28 29 30 31 32 33 34 35 36 37 38 39 40 41 42 43 44 45 46 47 48 49 50

000
ASUS43 KGRB 221800
RWRGRB

NORTH-CENTRAL AND NORTHEAST WISCONSIN REGIONAL WEATHER ROUNDUP
NATIONAL WEATHER SERVICE GREEN BAY WI
100 PM CDT FRI MAY 22 2015

WIZ005-009-010>012-018-019-221900-
NORTH CENTRAL WISCONSIN

CITY           SKY/WX    TMP DP  RH WIND       PRES   REMARKS
IRONWOOD       SUNNY     59  27  29 W10       30.20S
MANITOWISH WTR NOT AVBL
ARBOR VITAE    NOT AVBL
EAGLE RIVER    NOT AVBL
LAND O LAKES   NOT AVBL
RHINELANDER    SUNNY     62  25  24 VRB7G16   30.22S
PHILLIPS       NOT AVBL
ANTIGO         NOT AVBL
TOMAHAWK       NOT AVBL
MERRILL        NOT AVBL
$$

WIZ013-073-221900-
NORTHEAST WISCONSIN

CITY           SKY/WX    TMP DP  RH WIND       PRES   REMARKS
IRON MOUNTAIN  SUNNY     63  21  20 CALM      30.19F
MARINETTE      SUNNY     55  27  33 SE10      30.23F
$$

WIZ017-030-035>037-045-221900-
CENTRAL WISCONSIN

CITY           SKY/WX    TMP DP  RH WIND       PRES   REMARKS
MEDFORD        NOT AVBL
WAUSAU         SUNNY     63  31  30 VRB3      30.21R
MOSINEE        SUNNY     64  34  32 VRB6      30.24R
MARSHFIELD     SUNNY     66  34  30 W7        30.23S
WISC RAPIDS    SUNNY     66  28  24 VRB5      30.24S
STEVENS POINT  NOT AVBL
WAUPACA        NOT AVBL
SHAWANO        NOT AVBL
CLINTONVILLE   NOT AVBL
$$

WIZ038-039-048-051-221900-
FOX VALLEY

CITY           SKY/WX    TMP DP  RH WIND       PRES   REMARKS
NWS GREEN BAY  SUNNY     64  29  26 VRB6      30.24R
APPLETON       SUNNY     63  30  29 VRB6      30.24
OSHKOSH        SUNNY     64  34  32 VRB6      30.24R
FOND DU LAC    SUNNY     67  35  30 NW7       30.24S
$$

WIZ022-050-052-221900-
EAST CENTRAL WISCONSIN

CITY           SKY/WX    TMP DP  RH WIND       PRES   REMARKS
STURGEON BAY   SUNNY     55  32  41 E10       30.27S
MANITOWOC      NOT AVBL
SHEBOYGAN      SUNNY     58  32  37 SE10G22   30.26R
$$

LMZ563-521-522-541>543-221900-
LAKESHORE

STATION/POSITION TIME  TEMP    WIND        PRES    VSBY  WAVE
                       AIR SEA DIR/SP/G                  HT/PER
                 (UTC) (F)     (DEG/KT/KT) (MB)    (MI)  (FT/S)
SHEBOYGAN LKSHOR 1700           90/  9/ 10 1025.3R
KEWAUNEE LKSHORE 1700   45     100/  5/  9 1023.8R
NORTHPORT PIER   1700   43     110/  8/  9 1024.7
N MID LAKE BUOY  1650   38 36   90/  6/  6 1025.4R         1
SISTER BAY LKSHO 1717   53     160/ 10/ 13   N/A
CHAMBERS ISLAND  1700   50      70/  6/  9 1024.0S
MENOMINEE LKSHOR 1700   48     110/  8/ 10 1024.6R
$$


USA.gov is the U.S. government's official web portal to all federal, state and local government web resources and services.